Location: Aultman
(40.9284°N, 81.4173°W)
Time: 09:34:34
(UTC+00:00)

SKYMED 2 - Pass Details

Date: 24 January 2021
Orbit: 621 x 623 km, 97.9° (Epoch: 02 March)

Event Time Altitude Azimuth Distance (km) Brightness Sun altitude
Rises 23:13:27 0° 17° (NNE) 2,911 6.7 -7.9°
Reaches altitude 10° 23:15:42 10° 22° (NNE) 2,000 5.8 -8.3°
Maximum altitude 23:19:58 55° 100° (E) 751 3.7 -9.0°
Drops below altitude 10° 23:24:12 10° 179° (S) 1,983 6.4 -9.8°
Sets 23:26:25 0° 183° (S) 2,885 7.3 -10.2°
